Location: Arboyeti
(42.1122°N, 44.6017°E)
Time: 03:53:54
(UTC+00:00)

COSMOS 2455 - Pass Details

Date: 19 April 2021
Orbit: 902 x 907 km, 67.1° (Epoch: 09 May)

Event Time Altitude Azimuth Distance (km) Brightness Sun altitude
Exits shadow 19:37:44 44° 283° (WNW) 1,241 3.7 -33.1°
Maximum altitude 19:38:34 46° 306° (NW) 1,196 3.7 -33.2°
Drops below altitude 10° 19:44:22 10° 20° (NNE) 2,597 5.7 -33.6°
Sets 19:47:00 0° 26° (NNE) 3,543 6.5 -33.8°
